CW4114 Weather Reports


time (UTC)temp
F
wind
direction
speed
knots
gust
knots
rain 1hr
in
rain 24hr
in
rain mn
in
humidity
%
barometer
mb
20260906133509 67 32 1.7 2.6 0.00 0.00 0.00 90 1019.8
20260906133007 67 30 0.9 2.6 0.00 0.00 0.00 90 1019.8
20260906132507 67 28 1.7 2.6 0.00 0.00 0.00 89 1019.8
20260906132006 67 42 0.9 2.6 0.00 0.00 0.00 90 1019.8
20260906131506 67 59 1.7 2.6 0.00 0.00 0.00 90 1019.8
20260906131005 67 59 0.9 1.7 0.00 0.00 0.00 92 1019.7
20260906130505 67 28 0.9 1.7 0.00 0.00 0.00 92 1019.7
20260906130006 66 306 0.0 1.7 0.00 0.00 0.00 93 1019.7
20260906125504 65 275 0.9 1.7 0.00 0.00 0.00 93 1019.8
20260906125238 65 292 0.0 1.7 0.00 0.00 0.00 95 1019.6
20260906124730 64 298 0.0 1.7 0.00 0.00 0.00 96 1019.7
20260906124006 63 271 0.0 1.7 0.00 0.00 0.00 97 1019.6
20260906123504 62 323 0.0 1.7 0.00 0.00 0.00 97 1019.6
20260906123004 61 269 0.9 2.6 0.00 0.00 0.00 97 1019.6
20260906122504 61 261 1.7 2.6 0.00 0.00 0.00 97 1019.6
20260906122008 60 262 0.9 2.6 0.00 0.00 0.00 98 1019.6
20260906121505 60 252 1.7 2.6 0.00 0.00 0.00 98 1019.5
20260906121008 59 269 0.9 2.6 0.00 0.00 0.00 97 1019.5
20260906120005 58 272 0.9 2.6 0.00 0.00 0.00 97 1019.4
20260906115504 58 269 1.7 2.6 0.00 0.00 0.00 97 1019.4
20260906115004 58 272 1.7 3.5 0.00 0.00 0.00 97 1019.4
20260906114505 57 271 1.7 3.5 0.00 0.00 0.00 97 1019.3
20260906114003 57 271 0.9 2.6 0.00 0.00 0.00 97 1019.3
20260906113503 57 272 1.7 2.6 0.00 0.00 0.00 97 1019.1
20260906113002 57 262 0.9 3.5 0.00 0.00 0.00 97 1019.1
20260906112735 57 265 0.9 3.5 0.00 0.00 0.00 97 1019.0
20260906112235 56 272 1.7 3.5 0.00 0.00 0.00 97 1019.1
20260906111503 56 274 1.7 3.5 0.00 0.00 0.00 97 1019.0
20260906111003 56 282 1.7 2.6 0.00 0.00 0.00 97 1019.1
20260906110734 56 262 0.9 2.6 0.00 0.00 0.00 96 1019.1
20260906110002 56 261 0.0 1.7 0.00 0.00 0.00 96 1019.0
20260906105501 56 262 0.9 1.7 0.00 0.00 0.00 96 1018.9
20260906105001 56 257 0.9 1.7 0.00 0.00 0.00 96 1018.9
20260906104503 56 251 0.9 1.7 0.00 0.00 0.00 96 1018.9
20260906104001 56 251 0.9 1.7 0.00 0.00 0.00 96 1018.9
20260906103500 56 267 0.9 1.7 0.00 0.00 0.00 96 1018.9
20260906103000 56 264 0.9 1.7 0.00 0.00 0.00 96 1018.8
20260906102500 56 265 0.9 0.9 0.00 0.00 0.00 96 1018.8
20260906101959 56 269 0.9 1.7 0.00 0.00 0.00 96 1018.8
20260906101501 56 269 0.9 1.7 0.00 0.00 0.00 96 1018.7
20260906100959 56 252 0.9 1.7 0.00 0.00 0.00 96 1018.7
20260906100500 56 251 0.9 1.7 0.00 0.00 0.00 96 1018.7
20260906095959 56 252 0.9 1.7 0.00 0.00 0.00 96 1018.7
20260906095459 56 251 0.9 1.7 0.00 0.00 0.00 96 1018.7
20260906094959 56 254 0.0 1.7 0.00 0.00 0.00 96 1018.6
20260906094458 56 274 0.9 2.6 0.00 0.00 0.00 96 1018.5
20260906093958 56 276 1.7 2.6 0.00 0.00 0.00 96 1018.6
20260906093458 56 289 0.9 3.5 0.00 0.00 0.00 96 1018.6
20260906092959 56 275 1.7 3.5 0.00 0.00 0.00 96 1018.5
20260906092458 56 295 1.7 2.6 0.00 0.00 0.00 96 1018.5
20260906091958 56 278 1.7 2.6 0.00 0.00 0.00 96 1018.4
20260906091458 56 267 0.9 1.7 0.00 0.00 0.00 96 1018.3
20260906090958 56 261 0.9 2.6 0.00 0.00 0.00 95 1018.2
20260906090458 56 264 1.7 2.6 0.00 0.00 0.00 95 1018.2
20260906085959 56 237 0.9 1.7 0.00 0.00 0.00 95 1018.2
20260906085457 56 247 0.9 2.6 0.00 0.00 0.00 95 1018.1
20260906084957 56 274 0.9 2.6 0.00 0.00 0.00 95 1018.1
20260906084725 56 261 0.9 2.6 0.00 0.00 0.00 95 1018.1
20260906083957 56 259 0.0 2.6 0.00 0.00 0.00 95 1018.1
20260906083456 56 269 1.7 2.6 0.00 0.00 0.00 95 1018.1
20260906082957 56 271 0.9 1.7 0.00 0.00 0.00 95 1017.9
20260906082726 56 269 1.7 1.7 0.00 0.00 0.00 95 1017.9
20260906081957 56 272 0.9 2.6 0.00 0.00 0.00 95 1017.8
20260906081456 56 272 0.9 2.6 0.00 0.00 0.00 94 1017.7
20260906080959 56 254 0.9 1.7 0.00 0.00 0.00 94 1017.7
20260906080459 56 250 0.9 0.9 0.00 0.00 0.00 94 1017.7
20260906075953 56 262 0.9 1.7 0.00 0.00 0.00 94 1017.7
20260906075717 56 265 0.0 1.7 0.00 0.00 0.00 94 1017.8
20260906074952 56 265 0.9 1.7 0.00 0.00 0.00 94 1017.7
20260906074449 56 267 0.9 2.6 0.00 0.00 0.00 94 1017.7
20260906073949 56 272 0.9 2.6 0.00 0.00 0.00 94 1017.7
20260906073444 56 275 1.7 2.6 0.00 0.00 0.00 93 1017.8
20260906073213 56 276 0.9 1.7 0.00 0.00 0.00 93 1017.7
20260906072443 57 276 0.9 1.7 0.00 0.00 0.00 93 1017.7
20260906071942 57 274 0.9 2.6 0.00 0.00 0.00 93 1017.8
20260906071715 57 274 1.7 2.6 0.00 0.00 0.00 93 1017.7
20260906071206 57 276 0.9 2.6 0.00 0.00 0.00 93 1017.8
20260906070437 57 275 1.7 2.6 0.00 0.00 0.00 92 1017.8
20260906065935 57 265 1.7 2.6 0.00 0.00 0.00 92 1017.7
20260906065658 57 285 0.9 1.7 0.00 0.00 0.00 92 1017.6
20260906064934 57 271 0.9 1.7 0.00 0.00 0.00 91 1017.7
20260906064436 57 265 0.9 1.7 0.00 0.00 0.00 91 1017.7
20260906063932 58 265 0.0 1.7 0.00 0.00 0.00 91 1017.7
20260906063436 58 272 0.0 2.6 0.00 0.00 0.00 91 1017.7
20260906062933 58 278 0.9 2.6 0.00 0.00 0.00 91 1017.8
20260906062433 58 276 0.9 2.6 0.00 0.00 0.00 91 1017.8
20260906061932 58 282 0.9 1.7 0.00 0.00 0.00 91 1017.8
20260906061433 58 286 0.9 1.7 0.00 0.00 0.00 90 1017.8
20260906060935 58 279 0.9 1.7 0.00 0.00 0.00 90 1017.7
20260906060432 58 271 1.7 2.6 0.00 0.00 0.00 90 1017.8
20260906055932 58 271 0.9 2.6 0.00 0.00 0.00 89 1017.8
20260906055433 58 267 1.7 2.6 0.00 0.00 0.00 89 1017.8
20260906054932 58 271 1.7 2.6 0.00 0.00 0.00 89 1017.7
20260906054432 58 285 1.7 3.5 0.00 0.00 0.00 89 1017.8
20260906053933 58 267 1.7 3.5 0.00 0.00 0.00 89 1017.7
20260906053159 58 279 1.7 3.5 0.00 0.00 0.00 89 1017.7
20260906052437 58 275 1.7 3.5 0.00 0.00 0.00 89 1017.6
20260906052200 58 267 1.7 3.5 0.00 0.00 0.00 89 1017.6
20260906051659 58 271 0.9 2.6 0.00 0.00 0.00 88 1017.6
20260906050932 58 261 0.0 2.6 0.00 0.00 0.00 88 1017.4
20260906050432 58 276 1.7 2.6 0.00 0.00 0.00 88 1017.4
20260906045932 58 272 1.7 2.6 0.00 0.00 0.00 88 1017.4
20260906045432 58 281 1.7 2.6 0.00 0.00 0.00 87 1017.2
20260906044932 58 283 1.7 2.6 0.00 0.00 0.00 87 1017.4
20260906044435 59 275 0.9 2.6 0.00 0.00 0.00 86 1017.4
20260906044205 59 278 1.7 2.6 0.00 0.00 0.00 86 1017.4
20260906043656 59 278 1.7 2.6 0.00 0.00 0.00 86 1017.3
20260906042932 59 278 1.7 2.6 0.00 0.00 0.00 85 1017.3
20260906042452 60 271 0.9 2.6 0.00 0.00 0.00 85 1017.2
20260906041700 60 283 1.7 3.5 0.00 0.00 0.00 86 1017.4
20260906040429 60 285 1.7 3.5 0.00 0.00 0.00 86 1017.2
20260906035927 60 288 1.7 4.3 0.00 0.00 0.00 86 1017.3
20260906035655 59 279 2.6 4.3 0.00 0.00 0.00 87 1017.2
20260906034928 59 289 1.7 3.5 0.00 0.00 0.00 88 1017.1
20260906034427 59 283 2.6 3.5 0.00 0.00 0.00 88 1017.2
20260906033917 59 272 1.7 3.5 0.00 0.00 0.00 87 1017.0
20260906033414 59 252 1.7 2.6 0.00 0.00 0.00 88 1017.0
20260906032913 59 258 0.9 1.7 0.00 0.00 0.00 87 1017.1
20260906032412 60 230 0.9 1.7 0.00 0.00 0.00 87 1017.0
20260906031913 60 247 0.9 1.7 0.00 0.00 0.00 86 1017.1
20260906031412 60 262 1.7 1.7 0.00 0.00 0.00 86 1016.9
20260906030911 60 275 0.9 1.7 0.00 0.00 0.00 86 1016.9
20260906030636 60 236 0.0 0.0 0.00 0.00 0.00 85 1016.9
20260906025912 60 226 0.0 4.3 0.00 0.00 0.00 85 1016.9
20260906025411 60 9 0.0 4.3 0.00 0.00 0.00 85 1016.9
20260906024912 60 262 0.0 2.6 0.00 0.00 0.00 85 1016.9
20260906024410 60 271 0.9 2.6 0.00 0.00 0.00 85 1016.8
20260906023909 60 283 1.7 2.6 0.00 0.00 0.00 85 1016.8
20260906023409 60 269 1.7 2.6 0.00 0.00 0.00 84 1016.7
20260906022908 61 265 1.7 2.6 0.00 0.00 0.00 84 1016.8
20260906022407 61 223 1.7 3.5 0.00 0.00 0.00 84 1016.7
20260906021907 61 259 0.9 3.5 0.00 0.00 0.00 84 1016.8
20260906021637 61 279 2.6 3.5 0.00 0.00 0.00 85 1016.8
20260906021139 61 281 1.7 3.5 0.00 0.00 0.00 84 1016.7
20260906020408 61 259 1.7 3.5 0.00 0.00 0.00 84 1016.8
20260906015406 61 285 1.7 2.6 0.00 0.00 0.00 84 1016.8
20260906014906 62 247 0.9 2.6 0.00 0.00 0.00 83 1016.8
20260906014406 62 251 1.7 3.5 0.00 0.00 0.00 83 1016.8
20260906013907 62 261 1.7 3.5 0.00 0.00 0.00 84 1016.6
20260906013635 62 281 1.7 3.5 0.00 0.00 0.00 84 1016.7
20260906012903 62 274 1.7 2.6 0.00 0.00 0.00 84 1016.6
20260906012631 62 264 1.7 2.6 0.00 0.00 0.00 83 1016.7
20260906011903 62 271 1.7 2.6 0.00 0.00 0.00 83 1016.6
20260906011404 62 236 0.9 2.6 0.00 0.00 0.00 83 1016.5
20260906011325 63 251 1.7 2.6 0.00 0.00 0.00 82 1016.5
20260906010405 63 274 1.7 2.6 0.00 0.00 0.00 82 1016.5
20260906005904 63 268 1.7 1.7 0.00 0.00 0.00 81 1016.4
20260906005405 64 234 0.9 1.7 0.00 0.00 0.00 80 1016.5
20260906004903 64 252 0.9 1.7 0.00 0.00 0.00 80 1016.5
20260906004402 64 258 0.0 2.6 0.00 0.00 0.00 80 1016.4
20260906004128 65 269 1.7 2.6 0.00 0.00 0.00 79 1016.4
20260906003629 65 271 1.7 2.6 0.00 0.00 0.00 79 1016.5
20260906003130 65 259 1.7 2.6 0.00 0.00 0.00 78 1016.4
20260906002359 65 261 0.9 2.6 0.00 0.00 0.00 77 1016.4
20260906001859 66 278 0.9 1.7 0.00 0.00 0.00 75 1016.3
20260906001359 66 271 0.9 1.7 0.00 0.00 0.00 74 1016.3
20260906000901 67 269 0.9 1.7 0.00 0.00 0.00 73 1016.3
20260906000421 67 269 0.0 0.9 0.00 0.00 0.00 72 1016.2
20260905235856 67 269 0.0 0.9 0.00 0.00 0.00 71 1016.2
20260905235355 68 268 0.9 0.9 0.00 0.00 0.00 70 1016.2
20260905234855 68 76 0.0 0.0 0.00 0.00 0.00 68 1016.2
20260905234622 68 79 0.0 0.0 0.00 0.00 0.00 65 1016.3
20260905233856 69 75 0.0 0.0 0.00 0.00 0.00 64 1016.4
20260905233355 69 75 0.0 0.0 0.00 0.00 0.00 63 1016.5
20260905232853 69 75 0.0 0.0 0.00 0.00 0.00 61 1016.5
20260905232346 69 75 0.0 0.0 0.00 0.00 0.00 61 1016.5
20260905231848 69 75 0.0 0.0 0.00 0.00 0.00 61 1016.5
20260905231344 70 75 0.0 0.0 0.00 0.00 0.00 60 1016.5
20260905230844 70 76 0.0 0.0 0.00 0.00 0.00 58 1016.5
20260905230343 70 76 0.0 0.0 0.00 0.00 0.00 57 1016.5
20260905225842 70 73 0.0 1.7 0.00 0.00 0.00 58 1016.6
20260905225341 70 100 0.0 1.7 0.00 0.00 0.00 60 1016.6
20260905224842 70 104 0.9 1.7 0.00 0.00 0.00 59 1016.5
20260905224342 70 107 0.9 1.7 0.00 0.00 0.00 57 1016.5
20260905223839 70 97 0.9 1.7 0.00 0.00 0.00 58 1016.5
20260905223340 70 72 0.0 0.9 0.00 0.00 0.00 59 1016.5
20260905222840 70 68 0.0 2.6 0.00 0.00 0.00 60 1016.5
20260905222339 70 72 0.9 2.6 0.00 0.00 0.00 59 1016.4
20260905221839 71 42 0.0 1.7 0.00 0.00 0.00 61 1016.5
20260905221338 71 83 0.0 1.7 0.00 0.00 0.00 60 1016.5
20260905220838 71 83 0.9 1.7 0.00 0.00 0.00 61 1016.6
20260905220341 71 73 0.9 1.7 0.00 0.00 0.00 60 1016.5
20260905215840 70 61 0.9 1.7 0.00 0.00 0.00 61 1016.5
20260905215339 70 12 0.0 1.7 0.00 0.00 0.00 59 1016.4
20260905214841 71 59 0.9 2.6 0.00 0.00 0.00 61 1016.4
20260905214339 71 65 0.9 2.6 0.00 0.00 0.00 63 1016.4
20260905213840 71 68 1.7 3.5 0.00 0.00 0.00 63 1016.3
20260905213339 71 65 1.7 3.5 0.00 0.00 0.00 63 1016.3
20260905212840 71 80 1.7 3.5 0.00 0.00 0.00 61 1016.4
20260905212607 71 62 1.7 3.5 0.00 0.00 0.00 61 1016.3
20260905211839 71 54 1.7 3.5 0.00 0.00 0.00 60 1016.4
20260905211338 72 65 1.7 3.5 0.00 0.00 0.00 59 1016.4
20260905210842 72 71 1.7 3.5 0.00 0.00 0.00 59 1016.4
20260905210337 72 78 1.7 3.5 0.00 0.00 0.00 58 1016.4
20260905205838 72 66 1.7 3.5 0.00 0.00 0.00 60 1016.4
20260905205338 72 87 1.7 4.3 0.00 0.00 0.00 60 1016.3
20260905204837 72 79 1.7 4.3 0.00 0.00 0.00 59 1016.3
20260905204336 72 42 1.7 3.5 0.00 0.00 0.00 60 1016.2
20260905203839 72 73 2.6 3.5 0.00 0.00 0.00 61 1016.1
20260905203337 72 65 2.6 3.5 0.00 0.00 0.00 61 1016.2
20260905202838 72 78 1.7 3.5 0.00 0.00 0.00 62 1016.2
20260905202337 72 79 0.9 3.5 0.00 0.00 0.00 66 1016.2
20260905201838 73 89 1.7 3.5 0.00 0.00 0.00 72 1016.1
20260905201337 72 76 2.6 4.3 0.00 0.00 0.00 70 1016.3
20260905200840 72 73 2.6 4.3 0.00 0.00 0.00 70 1016.2
20260905200339 73 76 2.6 4.3 0.00 0.00 0.00 72 1016.3
20260905195838 73 61 1.7 4.3 0.00 0.00 0.00 71 1016.3
20260905195556 72 37 1.7 4.3 0.00 0.00 0.00 72 1016.4
20260905194834 72 54 1.7 4.3 0.00 0.00 0.00 69 1016.5
20260905194610 71 12 2.6 4.3 0.00 0.00 0.00 71 1016.6
20260905193835 71 28 0.9 3.5 0.00 0.00 0.00 74 1016.7
20260905192837 69 48 1.7 3.5 0.00 0.00 0.00 80 1016.9
20260905192602 70 24 1.7 3.5 0.00 0.00 0.00 77 1016.8
20260905191838 71 28 2.6 4.3 0.00 0.00 0.00 78 1016.7
20260905191333 71 21 0.9 4.3 0.00 0.00 0.00 76 1016.8
20260905190835 71 4 1.7 4.3 0.00 0.00 0.00 79 1017.0
20260905190335 71 34 2.6 5.2 0.00 0.00 0.00 81 1017.0
20260905185835 70 40 1.7 5.2 0.00 0.00 0.00 82 1017.1
20260905185331 70 73 2.6 4.3 0.00 0.00 0.00 82 1017.0
20260905185058 70 21 1.7 4.3 0.00 0.00 0.00 80 1017.0
20260905184335 70 86 2.6 4.3 0.00 0.00 0.00 81 1017.2
20260905183832 70 8 2.6 4.3 0.00 0.00 0.00 82 1017.2
20260905183331 70 24 1.7 4.3 0.00 0.00 0.00 81 1017.0
20260905182831 70 344 2.6 5.2 0.00 0.00 0.00 82 1017.0
20260905182331 71 11 3.5 5.2 0.00 0.00 0.00 78 1017.0
20260905182103 71 72 2.6 5.2 0.00 0.00 0.00 80 1017.0
20260905181331 70 21 0.9 5.2 0.00 0.00 0.00 81 1017.0
20260905180830 71 357 2.6 6.1 0.00 0.00 0.00 82 1017.0
20260905180438 71 44 1.7 4.3 0.00 0.00 0.00 80 1017.0
20260905180423 71 34 2.6 6.1 0.00 0.00 0.00 79 1017.0
20260905180110 72 38 1.7 5.2 0.00 0.00 0.00 81 1017.0
20260905174829 71 72 1.7 5.2 0.00 0.00 0.00 79 1017.1
20260905174330 71 71 1.7 5.2 0.00 0.00 0.00 82 1017.1
20260905173830 71 71 3.5 5.2 0.00 0.00 0.00 83 1017.0
20260905173329 70 48 3.5 5.2 0.00 0.00 0.00 82 1017.0
20260905172829 70 82 2.6 5.2 0.00 0.00 0.00 81 1016.9
20260905172329 70 28 3.5 7.8 0.00 0.00 0.00 81 1016.9
20260905171829 69 65 3.5 7.8 0.00 0.00 0.00 82 1016.9
20260905171327 70 78 5.2 7.8 0.00 0.00 0.00 81 1017.0
20260905171058 70 63 5.2 7.8 0.00 0.00 0.00 81 1017.0
20260905170332 71 62 4.3 7.8 0.00 0.00 0.00 81 1016.9
20260905165826 70 51 3.5 7.8 0.00 0.00 0.00 81 1017.0
20260905165324 70 92 5.2 7.8 0.00 0.00 0.00 81 1017.1
20260905164838 70 78 5.2 7.8 0.00 0.00 0.00 81 1017.0
20260905164326 70 62 3.5 6.1 0.00 0.00 0.00 83 1017.1
20260905163825 70 85 3.5 6.1 0.00 0.00 0.00 81 1017.1
20260905163326 70 75 4.3 7.8 0.00 0.00 0.00 81 1017.3
20260905163052 70 59 3.5 7.8 0.00 0.00 0.00 84 1017.2
20260905162547 70 114 3.5 6.1 0.00 0.00 0.00 81 1017.1
20260905161822 70 63 3.5 7.8 0.00 0.00 0.00 83 1017.2
20260905161321 70 63 5.2 8.7 0.00 0.00 0.00 81 1017.2
20260905160820 69 62 4.3 8.7 0.00 0.00 0.00 83 1017.1
20260905160320 70 35 5.2 7.8 0.00 0.00 0.00 83 1017.2
20260905160043 70 75 4.3 7.8 0.00 0.00 0.00 83 1017.2
20260905155320 71 83 2.6 6.1 0.00 0.00 0.00 84 1017.0
20260905154821 69 83 3.5 7.8 0.00 0.00 0.00 84 1016.9
20260905154318 69 82 5.2 7.8 0.00 0.00 0.00 83 1016.9
20260905154044 70 47 5.2 7.8 0.00 0.00 0.00 83 1016.9
20260905153318 70 63 3.5 6.1 0.00 0.00 0.00 83 1016.9
20260905152816 70 82 3.5 6.1 0.00 0.00 0.00 84 1016.9
20260905152314 70 83 3.5 7.8 0.00 0.00 0.00 84 1016.9
20260905151814 70 89 5.2 7.8 0.00 0.00 0.00 83 1016.8
20260905151314 70 100 3.5 7.8 0.00 0.00 0.00 84 1016.8
20260905150815 70 92 3.5 7.8 0.00 0.00 0.00 85 1016.7
20260905150313 69 51 3.5 9.6 0.00 0.00 0.00 84 1016.7
20260905145813 69 95 5.2 9.6 0.00 0.00 0.00 85 1016.5
20260905145312 69 97 5.2 8.7 0.00 0.00 0.00 85 1016.6
20260905144807 69 92 4.3 7.8 0.00 0.00 0.00 86 1016.6
20260905144307 70 79 5.2 7.8 0.00 0.00 0.00 85 1016.6
20260905143804 70 45 3.5 8.7 0.00 0.00 0.00 86 1016.5
20260905143304 69 92 4.3 8.7 0.00 0.00 0.00 85 1016.6
20260905142306 69 80 3.5 8.7 0.00 0.00 0.00 85 1016.4
20260905141808 69 135 2.6 8.7 0.00 0.00 0.00 86 1016.4
20260905141542 69 73 4.3 8.7 0.00 0.00 0.00 85 1016.2
20260905140805 69 80 3.5 8.7 0.00 0.00 0.00 86 1016.3
20260905140303 69 62 3.5 7.8 0.00 0.00 0.00 87 1016.3
20260905135804 69 78 4.3 7.8 0.00 0.00 0.00 86 1016.3
20260905135307 69 78 3.5 6.1 0.00 0.00 0.00 87 1016.3
20260905134818 68 89 3.5 6.1 0.00 0.00 0.00 88 1016.4
20260905134305 68 73 4.3 6.1 0.00 0.00 0.00 88 1016.4
20260905133802 68 100 3.5 5.2 0.00 0.00 0.00 88 1016.4